Content
SEND FEEDBACK

Daily
Averages
Monthly
Summary
United States of America

CHICAGO, ILLINOIS


Home > North America > United States > Illinois
Elevation: 205 meters     Latitude: 41 59N     Longitude: 087 54W

WEATHER
 
SELECT A DAY
Number of Records: 194,730;   Date Range: 7/8/95 - 7/7/14
 
SHARE

PRINT THIS DATA

[ ← Previous Day ]
WEATHER ALMANAC - 22 NOVEMBER, 2013
[ Next Day → ]
[ °F ]   °C
Weather ElementAverageHighLow
Temperature2.7 °C6.1 °C (12:52 am)-2.8 °C (11:52 pm)
Dewpoint-1.1 °C4 °C (12:34 am)-7.2 °C (11:52 pm)
Humidity76.8 %89 % (4:52 am)60 % (12:52 pm)
Barometer1028.8 hPa1032.5 hPa (3:52 pm)1023 hPa (12:34 am)
Wind Speed13 km/h24.1 km/h (7:52 am)
Wind Gust33.3 km/h (7:52 am)
Weather ElementAverage
Visibility12.9 km
Wind DirectionWNW (307.1 °)

Weather ElementTotal
Precipitation0.76 mm
Heating Degree Days16.7 (Base 18.3)
Averaged from 35 records on 22 November, 2013
WEATHER CONDITIONS BREAKOUT
WIND DIRECTION BREAKOUT
WEATHER BY HOUR - 22 NOVEMBER, 2013
[ °F ]   °C
Local TimeTemperatureDewpointHumidityBarometerVisibilityWind DirectionWind SpeedGust SpeedPrecipitationEventsConditions
12:34 AM6 °C4 °C87 %1023 hPa8 kmNorth (360°)7.4 km/hOvercast
12:52 AM6.1 °C3.3 °C82 %1024 hPa8 kmNNW (330°)7.4 km/hHaze
1:00 AM6 °C3 °C81 %1023.7 hPa8 kmNorth (350°)9.3 km/hHaze
1:52 AM6.1 °C3.3 °C82 %1024 hPa8 kmNNW (340°)11.1 km/hHaze
2:34 AM6 °C3 °C81 %1024 hPa8 kmNNW (340°)11.1 km/h0 mmOvercast
2:52 AM5.6 °C2.8 °C82 %1024.4 hPa8 kmNorth (350°)14.8 km/h0 mmHaze
3:04 AM6 °C3 °C81 %1024.4 hPa8 kmNNW (330°)14.8 km/hHaze
3:34 AM5 °C3 °C87 %1024.4 hPa8 kmNNW (340°)14.8 km/h0 mmOvercast
3:52 AM5 °C2.8 °C86 %1025.4 hPa8 kmNNW (340°)16.7 km/h0 mmRainLight Rain
4:06 AM5 °C3 °C87 %1025.1 hPa8 kmNNW (340°)14.8 km/h0 mmRainLight Rain
4:52 AM4.4 °C2.8 °C89 %1025.7 hPa8 kmNorth (350°)18.5 km/h0.25 mmRainLight Rain
5:07 AM4 °C2 °C87 %1025.4 hPa8 kmNNW (340°)14.8 km/h0 mmRainLight Rain
5:52 AM3.9 °C2.2 °C89 %1026.1 hPa9.7 kmNorth (350°)11.1 km/h0 mmOvercast
6:52 AM2.8 °C1.1 °C89 %1027.8 hPa12.9 kmNorth (350°)20.4 km/h0.25 mmRainLight Rain
7:52 AM2.2 °C0 °C86 %1029.1 hPa11.3 kmNorth (350°)24.1 km/h33.3 km/h0 mmOvercast
8:52 AM1.7 °C-0.6 °C85 %1029.8 hPa16.1 kmNorth (350°)16.7 km/h0.25 mmOvercast
9:52 AM1.7 °C-1.7 °C78 %1031.2 hPa16.1 kmNNW (340°)18.5 km/h33.3 km/hOvercast
10:52 AM1.7 °C-2.2 °C76 %1031.2 hPa16.1 kmNNW (340°)14.8 km/h31.5 km/hOvercast
11:17 AM2 °C-3 °C70 %1030.5 hPa16.1 kmNorth (350°)24.1 km/h31.5 km/hOvercast
11:52 AM2.2 °C-2.8 °C70 %1030.5 hPa16.1 kmNNW (340°)18.5 km/h33.3 km/hMostly Cloudy
12:07 PM3 °C-2 °C70 %1029.8 hPa16.1 kmNNW (340°)16.7 km/hScattered Clouds
12:52 PM3.9 °C-3.3 °C60 %1030.1 hPa16.1 kmNorth (350°)13 km/hScattered Clouds
1:00 PM3 °C-3 °C65 %1029.8 hPa16.1 kmNNE (20°)14.8 km/hMostly Cloudy
1:52 PM2.8 °C-2.8 °C67 %1031.5 hPa16.1 kmNNW (340°)18.5 km/hOvercast
2:52 PM2.8 °C-3.3 °C65 %1031.8 hPa16.1 kmNNW (330°)13 km/hOvercast
3:38 PM2 °C-4 °C65 %1031.8 hPa16.1 kmNW (310°)16.7 km/hScattered Clouds
3:52 PM1.7 °C-3.9 °C67 %1032.5 hPa16.1 kmNNW (330°)13 km/hClear
4:52 PM1.1 °C-4.4 °C67 %1032.5 hPa16.1 kmNW (310°)7.4 km/hClear
5:52 PM0.6 °C-4.4 °C70 %1032.2 hPa16.1 kmWNW (300°)5.6 km/hClear
6:52 PM0 °C-4.4 °C73 %1031.8 hPa16.1 kmCalmClear
7:52 PM-0.6 °C-5 °C72 %1032.2 hPa16.1 kmWest (270°)5.6 km/hClear
8:52 PM-1.1 °C-5.6 °C72 %1031.8 hPa16.1 kmSW (220°)5.6 km/hClear
9:52 PM-1.7 °C-5.6 °C75 %1032.2 hPa16.1 kmWSW (240°)5.6 km/hClear
10:52 PM-2.2 °C-6.7 °C72 %1031.8 hPa16.1 kmWest (260°)7.4 km/hClear
11:52 PM-2.8 °C-7.2 °C72 %1031.8 hPa16.1 kmWSW (250°)7.4 km/hClear
Hourly data recorded from KPWK, located 0 kilometers away from Chicago, Illinois







STORIES FROM OUR PARTNERS